Flag for Canada Weather past 2 weeks in Haldimand, Ontario, Canada

Now
50 °F

Passing clouds.


Feels Like: 45 °F
Forecast: N/A
Wind: 13 mph from Northeast

Location: Hamilton Airport


UV Index: N/A

Visibility: 15 mi


Pressure: 30.42 "Hg

Humidity: 50%

Dew point: 32 °F

Location of HaldimandLocation

Historic Weather in Haldimand

°F

Haldimand temperature yesterday

Maximum temperature yesterday: 54 °F (at 1:00 PM)
Minimum temperature yesterday: 34 °F (at 12:00 AM)
Average temperature yesterday: 45 °F

Past Weeks' High & Low Weather Summary

 TemperatureHumidityPressure
High72 °F (Apr 13, 4:00 PM)100% (Apr 4, 3:00 PM)30.54 "Hg (Apr 4, 3:00 PM)
Low18 °F (Apr 16, 5:00 AM)32% (Apr 9, 2:00 PM)29.30 "Hg (Apr 8, 5:00 AM)
Average41 °F71%29.98 "Hg
* Reported Apr 4 3:00 PM — Apr 19 3:00 PM, Haldimand, Weather by CustomWeather, © 2014

Note: Actual official high and low records may vary slightly from our data, if they occured in-between our weather recording intervals... More about our weather records

Advertising

Historic Weather Conditions — Data for Previous 24 hours

 ConditionsComfort  
Time TempWeatherWind HumidityBarometerVisibility
3:00 PM
Apr 19
48 °FSunny.13 mph54%30.43 "Hg15 mi
2:00 PM48 °FSunny.15 mph54%30.45 "Hg15 mi
1:00 PM46 °FSunny.14 mph57%30.47 "Hg15 mi
12:00 PM45 °FPassing clouds.14 mph61%30.45 "Hg15 mi
11:00 AM45 °FPassing clouds.18 mph61%30.46 "Hg15 mi
10:00 AM41 °FPassing clouds.13 mph70%30.46 "Hg15 mi
9:00 AM39 °FSunny.12 mph75%30.45 "Hg15 mi
8:00 AM36 °FPassing clouds.9 mph81%30.44 "Hg15 mi
7:00 AM30 °FPassing clouds.2 mph86%30.42 "Hg15 mi
6:00 AM30 °FPassing clouds.6 mph86%30.39 "Hg15 mi
5:00 AM30 °FPassing clouds.7 mph86%30.37 "Hg15 mi
4:00 AM30 °FClear.6 mph86%30.36 "Hg15 mi
3:00 AM32 °FPassing clouds.6 mph80%30.34 "Hg15 mi
2:00 AM34 °FPassing clouds.8 mph75%30.35 "Hg15 mi
1:00 AM36 °FPassing clouds.8 mph75%30.34 "Hg15 mi
12:00 AM37 °FPassing clouds.7 mph75%30.32 "Hg15 mi
11:00 PM
Apr 18
37 °FClear.8 mph75%30.31 "Hg15 mi
10:00 PM43 °FClear.6 mph71%30.30 "Hg15 mi
9:00 PM45 °FSunny.7 mph66%30.28 "Hg15 mi
8:00 PM46 °FScattered clouds.5 mph66%30.27 "Hg15 mi
7:00 PM50 °FScattered clouds.8 mph62%30.26 "Hg15 mi
6:00 PM50 °FPartly sunny.10 mph71%30.26 "Hg15 mi
5:00 PM52 °FScattered showers. Partly sunny.9 mph77%30.25 "Hg15 mi
4:00 PM54 °FMostly cloudy.7 mph63%30.24 "Hg15 mi
Weather by CustomWeather, © 2014

See weather overview